Address 0x8bec47865ade3b172a928df8f990bc7f2a3b9f79

Txn Hash Method
Block
From
To
Value [Txn Fee]
0x26303e36aeb97a46f1efbc066b56889d26a63dff9b3dab01720ba6370f4bec62Approve800908262022-12-07 4:53:3445 mins ago0x15014d5dfc57c2bf439e81e7c304174f7c1c34d3 IN Aurora: AURORA Token0 ETH0.00000326221
0x519c14d5c47fa14fa951be2d224282346983d5c24d81616313e8a91c22e82420Approve800888982022-12-07 4:16:001 hr 22 mins ago0x3762ae6552ca8f7dd13c8f329a25c6423eb5237f IN Aurora: AURORA Token0 ETH0.00000326221
0x72c96322dbbde1b1cc53ce76c5a8ea3730cccd675236693a417da9031140d9360x6b351848800867742022-12-07 3:35:392 hrs 3 mins ago0x302eab8e588c39cee016d43154a04a34fd97346d IN Aurora: AURORA Token0 ETH0
0x8bf7ccefa2c3f0f50d1169ff7b6807ab5997cc0cd429762e56d967b99fdbb3900x6b351848800865222022-12-07 3:30:302 hrs 8 mins ago0xebc7fa15841430e8866fa403b871fd7f7f64ece3 IN Aurora: AURORA Token0 ETH0
0x3f3f570bc8cb91b7ab79ed914097f631e627bb30847cb4d552d0e01e68b03f6fTransfer800852122022-12-07 3:04:202 hrs 34 mins ago0xb75958a391be88d84f94fa5fd40d8d82f2e4926a IN Aurora: AURORA Token0 ETH0.00000207795
0xcb4b64519fd409ea9072c5d63ab5a0e3a2ddc50f4434d00690c5868f2213f28bTransfer800850132022-12-07 3:00:182 hrs 38 mins ago0x0c988abc38a818bbb2fb9f8f9b547748cf5d42b5 IN Aurora: AURORA Token0 ETH0
0x963e2ccbecf03845ba93fd7aa639951193511b967509980eab9098d49cd27a00Approve800844202022-12-07 2:48:582 hrs 49 mins ago0xe9ee178e7406db0fe30cdcd77b2cdf721af412ff IN Aurora: AURORA Token0 ETH0
0x2f05460411eaa278a53776fba1e47e9c57c873441b0b52f4fedaed9cf4c89080Transfer800843132022-12-07 2:46:582 hrs 51 mins ago0xc2cd22f9ffd1427d8e9ed111d07df508e5f5227a IN Aurora: AURORA Token0 ETH0
0x0ed178b628d30b3a5a3fa7218604ab3aff7e444393133d387a4aaa593b713c120x6b351848800786822022-12-07 0:58:074 hrs 40 mins ago0x302eab8e588c39cee016d43154a04a34fd97346d IN Aurora: AURORA Token0 ETH0
0x97b370da247d91bc38b7a25d59587a79f40d0b3c12bf9f038eb055bde828ddf60x6b351848800770082022-12-07 0:26:025 hrs 12 mins ago0x302eab8e588c39cee016d43154a04a34fd97346d IN Aurora: AURORA Token0 ETH0
0xb6fc294498eb71135f9d2827c4fb9b430870eba1d4082099bbfc4422ba3493ca0x6b351848800768472022-12-07 0:22:525 hrs 16 mins ago0xebc7fa15841430e8866fa403b871fd7f7f64ece3 IN Aurora: AURORA Token0 ETH0
0x81c9ad47d43dcf9d0bf9163aa064b0b92576501a0aeca2ac84c549b705af27700x6b351848800767582022-12-07 0:21:015 hrs 17 mins ago0x302eab8e588c39cee016d43154a04a34fd97346d IN Aurora: AURORA Token0 ETH0
0x6e7983fb15c49fff6f310ba45046a4f5c370892d16909d18ae368b50bbdce4960x6b351848800767202022-12-07 0:20:175 hrs 18 mins ago0x302eab8e588c39cee016d43154a04a34fd97346d IN Aurora: AURORA Token0 ETH0
0x82dc5662809e64c0ca8196f2cb6dad5cc781fa06de84a343886253298dbef8180x6b351848800767022022-12-07 0:19:575 hrs 19 mins ago0xebc7fa15841430e8866fa403b871fd7f7f64ece3 IN Aurora: AURORA Token0 ETH0
0x194a272a02e5855c7b76b96fa340c34038b9ef4d19879b18948a5da57465554c0x6b351848800766832022-12-07 0:19:365 hrs 19 mins ago0x302eab8e588c39cee016d43154a04a34fd97346d IN Aurora: AURORA Token0 ETH0
0xd262031f62f2b8724a7ab5b43cd46fb138cca7d19f821f9e4d6766ad0b01eb010x6b351848800747142022-12-06 23:41:125 hrs 57 mins ago0x8584a36e5aac8097d7f3e42391ccea88044d6c4b IN Aurora: AURORA Token0 ETH0.00000247247
0x03aca43457a35cc1bcf5246adc44971aa0a768ff683784487e348d10e9be94cb0x6b351848800730922022-12-06 23:09:346 hrs 29 mins ago0xebc7fa15841430e8866fa403b871fd7f7f64ece3 IN Aurora: AURORA Token0 ETH0
0x82e0cdbeb323fc2484259e4e5e747cc5e2284079c1a3ebc3e05eca6b8e5594990x6b351848800730522022-12-06 23:08:456 hrs 30 mins ago0x302eab8e588c39cee016d43154a04a34fd97346d IN Aurora: AURORA Token0 ETH0
0x665309942f8445f16f1b106765af962d6dcd1e52b2c02dfbce51206efceff2660x6b351848800730442022-12-06 23:08:346 hrs 30 mins ago0x24982e39d7b1a6f686eaff209b2ec34bee3998a4 IN Aurora: AURORA Token0 ETH0
0x79cb1a9064e53400e3c253ef193da46bdc04cd5b922f9dcf58146b7e38639c9fTransfer800723512022-12-06 22:54:196 hrs 44 mins ago0xfe5604b75c4bba6a40f5f9a371e3b64888bfacce IN Aurora: AURORA Token0 ETH0.00000207627
0x29c8cf7a5f7f2e590a00122961682fd917211735abf884a88833bcdb7d7812d4Transfer800721602022-12-06 22:50:326 hrs 48 mins ago0x8584a36e5aac8097d7f3e42391ccea88044d6c4b IN Aurora: AURORA Token0 ETH0.00000327327
0xed51b61ac580de5c6022267bf0a732fd603404dc1db7b7a7a9689ff900c9e8f8Transfer800690972022-12-06 21:50:207 hrs 48 mins ago0x14122052dcc241a94d547a363392033640165663 IN Aurora: AURORA Token0 ETH0.00000241143
0xfa28e82f15cb376d4f812a7664033dc287c2bd7666968e6f31e0f0c4b5d2ca16Approve800646182022-12-06 20:23:239 hrs 15 mins ago0x68ed9503be1513789b2559fc884cf3e01fb192fb IN Aurora: AURORA Token0 ETH0
0xe51afcec844c1f68a6e9762acaca3d81ec24b3cbc790813ecd45c720b6f36fcf0x6b351848800640142022-12-06 20:11:199 hrs 27 mins ago0x302eab8e588c39cee016d43154a04a34fd97346d IN Aurora: AURORA Token0 ETH0
0xec16bc6d53aca0b63d5edfabc26ce8c4abb0075bc17272db4ee6c7dcbb16590fApprove800635772022-12-06 20:01:529 hrs 37 mins ago0xfaab03eae9d1110760ec7f7e9a6c988d44b9c8be IN Aurora: AURORA Token0 ETH0.00000326221
[ Download CSV Export 

OVERVIEW

Aurora is an Ethereum Virtual Machine created by the team at the NEAR Protocol, delivering a turn-key solution for developers to operate their apps on an Ethereum-compatible, high-throughput, scalable and future-safe platform, with low transaction costs for their users.

Parent Txn Hash Block From To Value
Loading

Contract Name:
0

Compiler Version
0

Optimization Enabled:
0

Other Settings:
-NA-
Block Transaction Gas Used Reward
Age Block Fee Address BC Fee Address Voting Power Jailed Incoming
Block Uncle Number Difficulty Gas Used Reward
Loading
Make sure to use the "Vote Down" button for any spammy posts, and the "Vote Up" for interesting conversations.